Location: Unspecified
(0.0000°N, 0.0000°E)
Time: 19:01:58
(UTC+00:00)

Tiangong 2 - Pass Details

Date: 12 December 2017
Orbit: 386 x 390 km, 42.8° (Epoch: 11 December)

Event Time Altitude Azimuth Distance (km) Brightness Sun altitude
Rises 18:55:22 0° 212° (SSW) 2,259 5.9 -14.1°
Reaches altitude 10° 18:57:33 10° 203° (SSW) 1,403 4.6 -14.6°
Maximum altitude 19:00:29 34° 135° (SE) 646 2.0 -15.3°
Enters shadow 19:01:11 30° 105° (ESE) 711 2.0 -15.4°
